Other Public Products
Issued by NWS Grand Forks, ND

Home | Current Version | Previous Version | Text Only | Print | Product List | Glossary Off
Versions: 1 2 3 4 5 6 7 8 9 10 11 12 13 14 15 16 17 18 19 20 21 22 23 24 25 26 27 28 29 30 31 32 33 34 35 36 37 38 39 40 41 42 43 44 45 46 47 48 49 50

000
FPUS83 KFGF 182310
OPUFGF
PRAIRIE TO PINES WEATHER ROUNDUP
NATIONAL WEATHER SERVICE EASTERN NORTH DAKOTA/GRAND FORKS ND
500 PM CST THU JAN 18 2018

 **SATELLITE DATA USED TO AUGMENT SKY COVER AT AUTOMATED STATIONS**
 *****  WEATHER ACROSS EASTERN NORTH DAKOTA  *****

CITY           SKY/WX    TMP DP  RH WIND       PRES   REMARKS
GRAND FORKS    CLOUDY    26  21  81 S10       29.69F WCI  16
GRND FORKS AFB FAIR      25  19  77 S8        29.67F WCI  17
GRND FORKS NWS   N/A     27 N/A N/A S7          N/A  WCI  19
BUXTON         NOT AVBL
DEVILS LAKE    FAIR      30  24  78 S10       29.62F WCI  21
FARGO          FAIR      29  23  78 S6        29.72  WCI  23
WAHPETON ARPT  FAIR      32  28  86 SW3       29.75F
$$

 *****  WEATHER ACROSS CENTRAL AND WESTERN NORTH DAKOTA  *****

CITY           SKY/WX    TMP DP  RH WIND       PRES   REMARKS
JAMESTOWN      FAIR      32  25  75 SW5       29.68S
BISMARCK       FAIR      37  28  70 CALM      29.70S
MINOT          FAIR      40  27  59 SW18      29.58F
MINOT AFB      FAIR      39  29  66 W9        29.56F
GARRISON         N/A     34  27  75 SW5       29.64S
WILLISTON      FAIR      37  28  70 SE7       29.65R
DICKINSON      FAIR      38  29  70 W12       29.66F
HETTINGER      FAIR      40  28  62 CALM      29.73R
$$

 *****  OTHER OBSERVATIONS NORTHEAST NORTH DAKOTA  *****

CITY           SKY/WX    TMP DP  RH WIND       PRES   REMARKS
WALHALLA       FAIR      28  21  74 SE6       29.61F WCI  22
LANGDON        FAIR      23  23 100 S14       29.59F WCI  11
CAVALIER         N/A     27  23  86 S9        29.63F WCI  17
GRAFTON        FAIR      25  23  93 S9        29.68F WCI  15
CANDO          FAIR      25  25 100 S7        29.62F WCI  17
FORT TOTTEN    NOT AVBL
ROLLA          FAIR      27  21  80 S8        29.57F WCI  18
RUGBY          FAIR      30  25  80 S10       29.60S WCI  21
 ***** THE ABOVE OBSERVATIONS ARE NON NWS ARE NOT QUALITY
        CONTROLLED AND MAY MIS-REPORT RAIN FOR SNOW...
$$

 *****  OTHER OBSERVATIONS SOUTHEAST NORTH DAKOTA *****

CITY           SKY/WX    TMP DP  RH WIND       PRES   REMARKS
COOPERSTOWN    FAIR      27  23  86 S10       29.67F WCI  17
VALLEY CITY    FAIR      28  28 100 S9        29.70F WCI  20
OAKES            N/A     32  28  86 S7        29.72F
GWINNER          N/A     32  27  80 SW7       29.73F
SHEYENNE NWR     N/A     31  27  85 SW3       29.95S
BUFFALO        NOT AVBL
WYNDMERE       NOT AVBL
 ***** THE ABOVE OBSERVATIONS ARE NON NWS ARE NOT QUALITY
       CONTROLLED AND MAY MIS-REPORT RAIN FOR SNOW...
$$

  *****  WEATHER ACROSS NORTHERN MINNESOTA  *****

CITY           SKY/WX    TMP DP  RH WIND       PRES   REMARKS
FLAG ISLAND    CLOUDY    25  19  80 SW7       29.66S WCI  17
WARROAD        CLOUDY    27  21  80 SW3       29.68F
ROSEAU         MOCLDY    27  21  80 SE5       29.66F WCI  21
HALLOCK        FAIR      23  19  86 S12       29.67S WCI  12
THF RVR FALLS  FAIR      22  18  85 S9        29.69F WCI  12
HALSTAD        NOT AVBL
FOSSTON        FAIR      21  18  86 S8        29.71F WCI  12
BAUDETTE       CLOUDY    28  23  81 W6        29.67F WCI  22
WASKISH        CLOUDY    28  27  93 SW5       29.70F WCI  23
CROOKSTON      FAIR      23  19  86 S10       29.71F WCI  12
$$
  *****  WEATHER ACROSS CENTRAL AND WEST MINNESOTA  *****

CITY           SKY/WX    TMP DP  RH WIND       PRES   REMARKS
BEMIDJI        FAIR      27  24  89 CALM      29.71F
PARK RAPIDS    FAIR      26  19  74 SW7       29.72S WCI  18
WADENA         FAIR      28  21  74 CALM      29.73F
DETROIT LAKES  FAIR      28  21  74 S3        29.73F
MOORHEAD       FAIR      28  23  80 S3        29.75F
FERGUS FALLS   FAIR      30  25  80 CALM      29.74S
ELBOW LAKE     FAIR      32  26  78 CALM      29.75S
MORRIS MN      FAIR      37  28  70 CALM      29.75R
STAPLES        FAIR      27  19  74 CALM      29.74S
WHEATON        FAIR      39  27  60 CALM      29.78R
$$
  *****  WEATHER ELSEWHERE ACROSS MINNESOTA  *****

CITY           SKY/WX    TMP DP  RH WIND       PRES   REMARKS
DULUTH         FAIR      33  25  72 NW3       29.70S
INTRNTL FALLS  CLOUDY    27  20  75 VRB6      29.69S WCI  20
ELY            CLOUDY    28  25  86 W8        29.68S WCI  20
CLOQUET        FAIR      34  25  69 SW5       29.71S
BRAINERD       FAIR      30  22  72 CALM      29.74F
HIBBING        CLOUDY    29  24  82 W5        29.71R WCI  24
ALEXANDRIA     FAIR      34  24  67 W3        29.75S
SAINT CLOUD    FAIR      33  25  72 SW5       29.76S
MINNEAPOLIS    CLOUDY    39  28  64 SW3       29.80R
$$

  *****  WEATHER ACROSS SOUTH DAKOTA  *****

CITY           SKY/WX    TMP DP  RH WIND       PRES   REMARKS
SIOUX FALLS    CLOUDY    39  29  67 CALM      29.83S
BROOKINGS      FAIR      35  28  75 SW7       29.80R
WATERTOWN      FAIR      35  28  75 SW5       29.76S
HURON          FAIR      37  30  75 S7        29.78F
SISSETON         N/A     38  26  62 CALM      29.74S
ABERDEEN       FAIR      38  28  67 S8        29.75F
MITCHELL       FAIR      39  31  72 SW6       29.82F
PIERRE         FAIR      37  27  67 S3        29.78S
MOBRIDGE       FAIR      37  28  70 SE9       29.71F
RAPID CITY     FAIR      46  28  49 E5        29.77F
$$

  *****  SOME WEATHER IN NEARBY STATES *****

CITY           SKY/WX    TMP DP  RH WIND       PRES   REMARKS
GLASGOW MT     CLOUDY    31  23  72 W3        29.65S
GREAT FALLS MT CLOUDY    43  32  65 SW12      29.69S
CHEYENNE WY    FAIR      55  20  25 W13       29.98S
SCOTTSBLUFF NE FAIR      48  31  51 W10       29.89F
OMAHA NE       CLOUDY    33  22  63 S14       29.94R WCI  23
DES MOINES IA  MOCLDY    36  21  54 SW10      29.95S
DAVENPORT IA   FAIR      34  20  56 SW14      30.01S WCI  25
CHICAGO IL     FAIR      31  19  61 SW18G25   29.98R WCI  19
EAU CLAIRE WI  FAIR      33  22  63 SW7       29.78S
LA CROSSE WI   FAIR      34  23  64 S9        29.87R
$$

  *****  SOME NATIONAL WEATHER *****

CITY           SKY/WX    TMP DP  RH WIND       PRES   REMARKS
LA GUARDIA NY  FAIR      31  14  49 NW13      29.99R WCI  21
RALEIGH NC     FAIR      29  20  69 W5        30.21S WCI  24
ATLANTA GA     FAIR      37  14  38 W9        30.34R
NEW ORLEANS LA FAIR      42  17  36 NW3       30.44F
OKLAHOMA CITY  FAIR      48   9  20 S18       30.19F
ALBUQUERQUE NM FAIR      52  10  18 CALM      30.18F
SALT LAKE CITY CLOUDY    48  35  60 W3        30.02F
LOS ANGELES CA FAIR      68  52  56 W5        30.03F
BOISE ID       CLOUDY    47  36  65 N8        29.84F
SEATTLE WA     LGT RAIN  45  42  89 S5        29.76F FOG
$$

*** WEATHER ACROSS MANITOBA...SASKATCHEWAN AND ONTARIO ***
                ***ONTARIO***

CITY           SKY/WX    TMP DP  RH WIND       PRES   REMARKS
GERALDTON      CLOUDY    16  12  86 E3        29.67R
THUNDER BAY    CLOUDY    27  23  86 W3        29.69R
SIOUX LOOKOUT  CLOUDY    19  18  93 CALM      29.63S FOG
TORONTO        CLOUDY    23  14  68 SW13      29.96F WCI  11
BIG TROUT LK   FLURRIES   7   5  92 E5        29.71F WCI  -2
PICKLE LAKE    CLOUDY    16   7  67 S5        29.64S WCI   9
DRYDEN         CLOUDY    25  25 100 SW7       29.63R FOG     WCI  17
KENORA         MOCLDY    21  14  73 S5        29.62F WCI  15
$$
                *** MANITOBA***

CITY           SKY/WX    TMP DP  RH WIND       PRES   REMARKS
BRANDON        CLOUDY    25  21  86 SW6       29.54F WCI  18
DAUPHIN        CLOUDY    25  21  86 SE6       29.50F WCI  18
ISLAND LAKE    CLOUDY    14   9  79 E7        29.60F WCI   4
PILOT MOUND      N/A     25  21  86 S12         N/A  WCI  14
THE PAS        CLOUDY    12   9  85 SE10      29.42F WCI  -1
THOMPSON       LGT SNOW   9   3  78 E5        29.58F WCI   0
WINNIPEG       CLOUDY    23  18  80 S13       29.64R WCI  11
LYNN LAKE      FLURRIES   9   7  92 E8        29.48R WCI  -4
CHURCHILL      FLURRIES   0  -2  92 SE3       29.78S
GILLAM         CLOUDY     1  -2  85 SE3       29.70S
$$
                ***SASKATCHEWAN***

CITY           SKY/WX    TMP DP  RH WIND       PRES   REMARKS
ESTEVAN        CLOUDY    36  28  75 S12       29.56F
KINDERSLEY     MOCLDY    37  32  81 W20       29.40R
LLOYDMINSTER   PTCLDY    37  30  75 W14G22    29.29R
PRINCE ALBERT  PTCLDY    32  27  80 W3        29.28S
REGINA         MOCLDY    37  32  81 SW10      29.47S
YORKTON        CLEAR     32  27  80 S8        29.41F WC



USA.gov is the U.S. government's official web portal to all federal, state and local government web resources and services.